Location: Poughquag
(41.6090°N, 73.6820°W)
Time: 20:46:06
(UTC-05:00)

Transit 2A - Pass Details

Date: 05 December 2023
Orbit: 600 x 953 km, 66.7° (Epoch: 23 February)

Event Time Altitude Azimuth Distance (km) Brightness Sun altitude
Rises 16:39:50 0° 253° (WSW) 3,171 11.5 -3.3°
Reaches altitude 10° 16:43:03 10° 272° (W) 2,179 9.5 -3.9°
Maximum altitude 16:46:18 17° 314° (NW) 1,671 8.0 -4.4°
Drops below altitude 10° 16:49:24 10° 357° (N) 2,059 8.0 -4.9°
Sets 16:52:20 0° 17° (NNE) 2,924 8.6 -5.4°
